Regional Weather Roundup
Issued by NWS

Home | Current Version | Previous Version | Graphics & Text | Print | Product List | Glossary On
Versions: 1 2 3 4 5 6 7 8 9 10 11 12 13 14 15 16 17 18 19 20 21 22 23 24 25 26 27 28 29 30 31 32 33 34 35 36 37 38 39 40 41 42 43 44 45 46 47 48 49 50
000
ASUS43 KTOP 231059
RWRKS

WEATHER ROUNDUP FOR KANSAS
NATIONAL WEATHER SERVICE GOODLAND KS
600 AM CDT WED JUL 23 2014

NOTE:  "FAIR" INDICATES FEW OR NO CLOUDS BELOW 12,000 FEET WITH NO
SIGNIFICANT WEATHER AND/OR OBSTRUCTIONS TO VISIBILITY.

KSZ001>006-013>018-027>032-041>047-231200-
NORTHWEST KANSAS

CITY           SKY/WX    TMP DP  RH WIND       PRES   REMARKS
GOODLAND       CLOUDY    68  67  96 E18       30.30R
HAYS           CLOUDY    73  63  68 N12       30.23R
HILL CITY      CLOUDY    73  67  81 NE13      30.25R
RUSSELL        MOCLDY    75  69  81 NE8       30.18R
$$

KSZ061>065-074>080-084>089-231200-
SOUTHWEST KANSAS

CITY           SKY/WX    TMP DP  RH WIND       PRES   REMARKS
DODGE CITY     CLEAR     69  60  73 SW5       30.20R
ELKHART          N/A     72  62  71 SW6         N/A
GARDEN CITY    CLEAR     71  64  78 CALM      30.22R
GREAT BEND     CLEAR     75  70  83 NE6       30.16S
LIBERAL        CLEAR     70  64  83 SW6       30.22S
PRATT          CLEAR     70  66  88 N5        30.18R
$$

KSZ066>073-081>083-090>101-231200-
SOUTHEAST KANSAS

CITY           SKY/WX    TMP DP  RH WIND       PRES   REMARKS
CHANUTE        CLEAR     78  74  87 NW7       30.09R
COFFEYVILLE    CLEAR     76  74  93 CALM      30.07S FOG
HUTCHINSON     PTCLDY    77  73  87 N9        30.13R
MEDICINE LODGE   N/A     71  70  96 NW3       30.13R
NEWTON         CLEAR     75  70  83 NE8       30.16S
PARSONS        CLEAR     74  72  93 CALM      30.09R FOG
WICHITA INTL   PTCLDY    76  71  85 CALM      30.11S
WICHITA JABRA  CLEAR     75  72  90 SW3       30.11S
WINFIELD       CLEAR     76  75  97 NE7       30.12R
$$

KSZ007>012-019>026-033>040-048>060-102>105-231200-
NORTHEAST KANSAS

CITY           SKY/WX    TMP DP  RH WIND       PRES   REMARKS
CONCORDIA      CLOUDY    72  67  84 NE9       30.19R
EMPORIA        PTCLDY    75  72  90 NE6       30.12R
LAWRENCE       MOCLDY    76  68  76 N12       30.13R
MANHATTAN      PTCLDY    75  67  76 NE12      30.15R
OLATHE IND     CLEAR     75  70  84 N8        30.12R
OLATHE EXE     CLEAR     75  69  81 NE13      30.11R
SALINA         MOCLDY    78  69  73 NE10      30.16R
TOPEKA BILLARD CLOUDY    75  69  81 N10       30.14R
TOPEKA FORBES  PTCLDY    75  69  81 NE7       30.14R
$$



USA.gov is the U.S. government's official web portal to all federal, state and local government web resources and services.